STARLINK-34474 (64474 NORAD) Tracking and Keplerian Element Data

This shows tracking and keplerian element data for the satellite.

Feedback or suggestion? Click here.




ElementValue
Catalog64474
NameSTARLINK-34474
Epoch Orbit2893
Epoch Day353.79304811
Epoch Year2025
RAAN128.076
Inclination53.1594
Eccentricity1.73E-05
Argument of Perigee48.9811
Mean Anonmoly311.1204
Mean Motion15.30209551
Decay Rate0.00021798
L11 64474U 25133C 25353.79304811 .00021798 00000+0 74569-3 0 9990
L22 64474 53.1594 128.0760 0000173 48.9811 311.1204 15.30209551 28935



Live tracking and technical data element details for STARLINK-34474 (NORAD 64474). STARLINK-34474 can be tracked NOW for your location showing map with azimuth and elevation plus other details from your city location.







IsCatalogInMostPopularTable: catalog: 64474, numindb: 12
Update: records affected: 1



GetName: 64474 STARLINK-34474

Hit Count: updated at: Tue, 21 Apr 2026 19:34:13 GMT